格洛纳斯-742 COSMOS 1970 [GLONASS]

导读 | 豆包AI

COSMOS 1970是1988年9月16日独联体发射的GLONASS(全球导航卫星系统)组网卫星,GLONASS是苏联主导构建的全球第二个卫星导航系统,为苏联及后续俄罗斯提供全球定位、测速与授时服务。该卫星属于第一代GLONASS卫星,入轨后参与构建格洛纳斯空间星座,在中圆地球轨道服役,助力系统完成全球导航覆盖能力建设,是GLONASS早期建设阶段的重要组成卫星。

基本信息
目录编号:
19501
目录名称:
COSMOS 1970 (GLONASS)
国际标识:
1988-085A
轨道中心:
EARTH
卫星名称:
格洛纳斯-742
卫星全名:
格洛纳斯-742 COSMOS 1970 [GLONASS]
卫星状态:
在轨 (已飞行13693 天)
发射日期:
1988-09-16 UTC
国别 :
俄罗斯(独联体) (CIS)
星等 :
--
轨道信息
数据来源 国际轨道数据 AOE轨道数据
星历时间 2026-03-12T17:29:46+0800
1天前
查看轨道信息
2026-03-14T03:00:00+0800
13小时前
查看轨道信息
半长轴 25508.025km 25507.985km
偏心率 0.0009887 0.0009873
轨道倾角 65.297° 65.296°
近地点辐角 42.346° 42.163°
升交点赤经 317.776° 317.729°
平近点角 136.921° 128.058°
近地点 19104.668km 19104.663km
远地点 19155.108km 19155.033km
周期 675.733分钟 675.731分钟
每日圈数 2.13102 2.131025
详细信息
平衡模式:
三轴稳定
覆盖范围:
全球
运营商:
列舍特涅夫卫星信息系统
运营商所在国:
俄罗斯
制造商(研发单位):
列舍特涅夫卫星信息系统
制造商所在国:
俄罗斯
使用方式:
暂无
卫星简介
格洛纳斯(GLONASS )是苏联/俄罗斯研制卫星导航系统。标准配置为24颗卫星,其中18颗卫星就能保证该系统为俄罗斯境内用户提供全部服务。该卫星已退役。
2D轨道图
3D轨道图
轨道高度分析图
轨道倾角分析图
轨道综合分析图
查看轨道综合分析图